Regional Weather Roundup
Issued by NWS

Home | Current Version | Previous Version | Text Only | Print | Product List | Glossary On
Versions: 1 2 3 4 5 6 7 8 9 10 11 12 13 14 15 16 17 18 19 20 21 22 23 24 25 26 27 28 29 30 31 32 33 34 35 36 37 38 39 40 41 42 43 44 45 46 47 48 49 50
830
ASUS44 KJAN 301210
RWRMS

MISSISSIPPI HOURLY WEATHER ROUNDUP
NATIONAL WEATHER SERVICE JACKSON MS
700 AM CDT SAT AUG 30 2014

NOTE: "FAIR: INDICATES FEW OR NO CLOUDS BELOW 12,000 FEET WITH NO
SIGNIFICANT WEATHER AND/OR OBSTRUCTIONS TO VISIBILITY.

MSZ001>002-007>008-010>013-018>021-025>028-034>036-301300-
NORTHWEST MISSISSIPPI

CITY           SKY/WX    TMP DP  RH WIND       PRES   REMARKS
CLARKSDALE     MOCLDY    75  75 100 CALM      30.03S
CLEVELAND      DRIZZLE   75  75  99 CALM      30.02R
GREENWOOD      CLOUDY    76  71  85 SW3       30.03R
6HR MIN TEMP:  75; 6HR MAX TEMP:  78;

GREENVILLE     LGT RAIN  75  73  93 CALM      30.01R FOG
6HR MIN TEMP:  75; 6HR MAX TEMP:  79; 6HR PCP:  0.03;

GRENADA        PTSUNNY   73  70  88 CALM      30.05R
OLIVE BRANCH   TSTM      73  73 100 SE6       30.04R
OXFORD         FAIR      73  68  83 CALM      30.07R
TUNICA         DRIZZLE   73  72  94 CALM      30.03R
$$

MSZ003>006-009-014>017-022>024-029>033-037>039-301300-
NORTHEAST MISSISSIPPI

CITY           SKY/WX    TMP DP  RH WIND       PRES   REMARKS
BELMONT        PTSUNNY   74  68  80 SW3       30.07R
COLUMBUS AFB   CLOUDY    74  71  93 CALM      30.05S
6HR MIN TEMP:  72; 6HR MAX TEMP:  76; 6HR PCP: TRACE;

CORINTH        DRIZZLE   72  70  94 E6        30.06S
GOLDN TRIANGLE MOCLDY    75  70  83 CALM      30.06R
STARKVILLE     LGT RAIN  72  70  94 CALM      30.05S
TUPELO         CLOUDY    75  69  81 NE5       30.05R
6HR MIN TEMP:  74; 6HR MAX TEMP:  78;

$$

MSZ040-058-301300-
CENTRAL MISSISSIPPI

CITY           SKY/WX    TMP DP  RH WIND       PRES   REMARKS
JACKSON INTL   CLOUDY    75  73  93 SE5       30.03S
6HR MIN TEMP:  74; 6HR MAX TEMP:  77; 6HR PCP:  0.06;

JACKSON HAWKNS CLOUDY    76  73  91 SE5       30.03S
6HR MIN TEMP:  75; 6HR MAX TEMP:  78; 6HR PCP:  0.02;

MERIDIAN KEY   CLOUDY    74  72  93 CALM      30.06R
6HR MIN TEMP:  74; 6HR MAX TEMP:  77;

MERIDIAN NAS   CLOUDY    75  72  90 E3        30.06S
6HR MIN TEMP:  74; 6HR MAX TEMP:  78;

RAYMOND        FAIR      73  68  83 MISG      30.02F
VICKSBURG      CLOUDY    76  73  91 SE3       30.01S
6HR MIN TEMP:  75; 6HR MAX TEMP:  79; 6HR PCP:  0.01;

$$

MSZ059>079-301300-
SOUTH MISSISSIPPI

CITY           SKY/WX    TMP DP  RH WIND       PRES   REMARKS
BROOKHAVEN     FOG       75  73  94 E3        30.03F VSB 1/4
COLUMBIA       FAIR      73  73 100 E6        30.02S
HATTIESBURG    CLOUDY    74  73  97 SE3       30.04S FOG
6HR MIN TEMP:  74; 6HR MAX TEMP:  77;

MCCOMB         CLOUDY    75  74  96 SE6       30.01S
6HR MIN TEMP:  75; 6HR MAX TEMP:  75;

NATCHEZ        CLOUDY    73  72  94 E5        29.99F
6HR MIN TEMP:  73; 6HR MAX TEMP:  77;

PINE BELT      CLOUDY    73  72  94 CALM      30.06S
6HR MIN TEMP:  73; 6HR MAX TEMP:  75; 6HR PCP:  0.01;

$$

MSZ080>082-301300-
COASTAL MISSISSIPPI

CITY           SKY/WX    TMP DP  RH WIND       PRES   REMARKS
BAY ST LOUIS   LGT RAIN N/A N/A N/A CALM      30.02
BILOXI         PTCLDY    83  74  74 S7        30.03R
6HR MIN TEMP:  82; 6HR MAX TEMP:  83;

PASCAGOULA     MOCLDY    75  75 100 CALM      30.04R
6HR MIN TEMP:  75; 6HR MAX TEMP:  78;

GULFPORT       CLEAR     82  74  76 SE5       30.02R
6HR MIN TEMP:  81; 6HR MAX TEMP:  82;

$$



USA.gov is the U.S. government's official web portal to all federal, state and local government web resources and services.